User: anonymous   Login
Location: Clanezzo
(45.7500°N, 9.6000°E)
Time: 09:27:12
(UTC+00:00)
Language:

CUTE-I - Orbit

View from above orbital plane
View from above orbital plane
View from above satellite
View from above satellite

Ground track
Ground track

The orbit data is extracted from the following two-line orbital elements,

1 27844U 03031E   23341.44729455  .00000425  00000-0  20808-3 0  9997
2 27844  98.6789 346.2009 0009521 350.2156   9.8835 14.22991271 60374
Epoch (UTC): 07 December 2023 10:44:06
Eccentricity: 0.0009521
inclination: 98.6789°
perigee height: 808 km
apogee height: 822 km
right ascension of ascending node: 346.2009°
argument of perigee: 350.2156°
revolutions per day: 14.22991271
mean anomaly at epoch: 9.8835°
orbit number at epoch: 6037

The dashed part of the orbit path shows where the satellite is in the earth's shadow,  

DLR